Location: Wien
(48.2082°N, 16.3738°E)
Time: 22:11:11
(UTC+02:00)

NOAA 18 - Visible Passes

Search period start: 17 October 2019 00:00
Search period end: 27 October 2019 00:00
Orbit: 841 x 861 km, 99.1° (Epoch: 17 October)

Date Brightness Start Highest point End Pass type
(mag) Time Alt. Az. Time Alt. Az. Time Alt. Az.
17 Oct 7.0 19:01:43 11° ENE 19:03:08 12° NE 19:05:08 10° NNE visible
17 Oct 5.6 20:43:44 51° NNE 20:43:44 51° NNE 20:48:10 10° N visible
17 Oct 7.5 22:25:45 20° WNW 22:25:45 20° WNW 22:28:10 10° NW visible
18 Oct 5.7 20:31:59 44° NE 20:31:59 44° NE 20:36:20 10° N visible
18 Oct 7.3 22:13:59 23° WNW 22:13:59 23° WNW 22:16:41 10° NW visible
19 Oct 5.9 20:20:13 37° NE 20:20:13 37° NE 20:24:28 10° N visible
19 Oct 7.1 22:02:15 26° NW 22:02:15 26° NW 22:05:07 10° NNW visible
20 Oct 6.1 20:08:28 31° NE 20:08:28 31° NE 20:12:33 10° N visible
20 Oct 6.9 21:50:29 29° NW 21:50:29 29° NW 21:53:29 10° NNW visible
21 Oct 6.3 19:56:43 27° NE 19:56:43 27° NE 20:00:36 10° N visible
21 Oct 6.7 21:38:44 32° NW 21:38:44 32° NW 21:41:50 10° NNW visible
22 Oct 6.5 19:44:58 22° NE 19:44:58 22° NE 19:48:37 10° N visible
22 Oct 6.5 21:26:58 35° NNW 21:26:58 35° NNW 21:30:08 10° NNW visible
23 Oct 6.7 19:33:11 19° NE 19:33:11 19° NE 19:36:33 10° NNE visible
23 Oct 6.4 21:15:12 36° NNW 21:15:12 36° NNW 21:18:23 10° NNW visible
24 Oct 6.8 19:21:25 16° NE 19:21:25 16° NE 19:24:25 10° NNE visible
24 Oct 6.3 21:03:27 36° N 21:03:27 36° N 21:06:37 10° NNW visible
24 Oct 8.1 22:45:28 11° NW 22:45:28 11° NW 22:45:55 10° NW visible
25 Oct 7.0 19:09:39 13° NE 19:09:39 13° NE 19:12:06 10° NNE visible
25 Oct 6.3 20:51:41 34° N 20:51:41 34° N 20:54:49 10° N visible
25 Oct 7.9 22:33:42 13° NW 22:33:42 13° NW 22:34:36 10° NW visible
26 Oct 7.1 18:57:54 11° NE 18:58:07 11° NE 18:59:22 10° NE visible
26 Oct 6.4 20:39:55 32° N 20:39:55 32° N 20:42:59 10° N visible
26 Oct 7.8 22:21:56 15° NW 22:21:56 15° NW 22:23:10 10° NW visible
